Location: Balstrup
(55.4333°N, 11.8167°E)
Time: 06:04:59
(UTC+00:00)

Daily predictions for brighter satellites

Satellite Brightness Start Highest point End
(mag) Time Altitude Azimuth Time Altitude Azimuth Time Altitude Azimuth
Cosmos 1805 Rocket 4.2 19:18:57 10° SSW 19:23:22 64° WNW 19:27:50 10° N
Cosmos 407 Rocket 3.7 19:20:30 10° SSW 19:25:50 86° WNW 19:31:07 10° NNE
Cosmos 2333 Rocket 3.6 19:21:48 10° NNW 19:26:52 30° NNE 19:31:53 10° E
Cosmos 1763 Rocket 3.6 19:21:34 10° NNW 19:26:56 76° ENE 19:32:15 10° SSE
Cosmos 1437 Rocket 3.4 19:24:12 10° N 19:27:49 38° ENE 19:31:22 10° SE
SJ-6B 4.3 19:24:30 10° SSW 19:28:15 38° W 19:31:56 10° NNW
Cosmos 1570 Rocket 4.5 19:23:39 10° NNW 19:28:52 51° NE 19:34:05 10° SE
Cosmos 1190 Rocket 4.1 19:24:43 10° SSW 19:30:02 87° ESE 19:35:24 10° NNE
Cosmos 1703 Rocket 4.1 19:26:19 10° N 19:30:28 41° ENE 19:34:34 10° SE
deb Kosmos-1763 4.0 19:27:30 10° SSW 19:31:08 80° ESE 19:34:49 10° NNE
FALCON 9 DEB 3.5 19:28:17 10° WSW 19:31:39 46° SSE 19:35:01 10° E
Cosmos 1140 Rocket 3.5 19:26:35 10° SSW 19:31:51 87° ESE 19:37:09 10° NNE
H-2A R/B 4.4 19:29:12 10° NE 19:32:51 29° E 19:36:28 10° SSE
Resurs 1-3 4.1 19:28:54 10° S 19:33:15 64° WSW 19:37:38 10° NNW
OBJECT-B 1.9 19:32:37 10° S 19:35:49 47° W 19:39:03 10° NNW
Cosmos 921 Rocket 3.5 19:35:12 10° NNW 19:39:21 57° WSW 19:43:27 10° S
Cosmos 1633 Rocket 3.1 19:35:08 10° S 19:39:34 86° ESE 19:44:00 10° NNE
Cosmos 2123 Rocket 4.3 19:33:57 10° NNW 19:40:11 74° W 19:46:25 10° S
Cosmos 2208 Rocket 4.4 19:35:08 10° NNW 19:40:19 52° NE 19:45:24 10° SE
Cosmos 1184 Rocket 2.7 19:37:03 10° S 19:40:20 70° E 19:43:37 10° NNE
Landsat 7 4.0 19:37:12 10° SSE 19:41:53 60° ENE 19:46:36 10° N
SPOT 5 3.7 19:38:38 10° ESE 19:42:30 32° ENE 19:46:31 10° N
Cosmos 1535 Rocket 4.5 19:40:02 10° S 19:46:09 82° E 19:52:18 10° NNE
MetOp-B 4.2 19:42:11 10° SSE 19:47:33 85° ENE 19:52:57 10° NNW
Meteor 1-19 Rocket 4.2 19:43:23 10° NNW 19:48:50 73° ENE 19:54:19 10° SSE
Okean 1 3.3 19:47:27 10° N 19:51:33 80° ENE 19:55:36 10° SSE
OPS 6432 4.2 19:48:07 10° SW 19:51:49 82° SE 19:54:51 10° NE
CZ-2C R/B 3.0 19:46:46 10° NNE 19:51:55 68° WNW 19:57:07 10° SSW
ERBS 2.5 19:50:16 10° WNW 19:53:35 67° N 19:56:53 10° E
Cosmos 1605 Rocket 4.0 19:48:32 10° S 19:54:34 68° E 20:00:38 10° NNE
USA 267 4.2 19:50:30 10° ENE 19:55:38 24° SE 20:00:47 10° S
Cosmos 2219 Rocket 3.3 19:51:59 10° NNW 19:57:14 36° NE 20:02:28 10° ESE
Meteor 2-4 Rocket 3.9 19:51:51 10° N 19:57:26 57° ENE 20:02:35 11° SSE
NOSS 3-2 (A) 3.5 19:52:43 10° SSW 19:58:31 65° SE 20:05:13 10° NE
Cosmos 540 Rocket 3.5 19:54:40 10° NNW 19:59:52 75° ENE 20:04:39 12° SE
SL-16 R/B 2.4 19:55:06 10° NW 20:00:46 71° WSW 20:06:25 10° SSE
Lacrosse 4 Rocket 3.5 20:01:22 10° ESE 20:01:23 10° ESE 20:01:55 10° E
SL-4 R/B 2.1 20:00:20 10° WSW 20:04:10 47° S 20:07:24 12° ESE
Cosmos 2242 Rocket 3.7 19:59:42 10° NNW 20:04:10 80° W 20:08:34 10° S
BREEZE-M DEB (TANK) 3.2 20:02:20 10° WSW 20:05:08 40° SSE 20:12:08 10° E
SL-27 R/B 3.0 20:04:53 10° S 20:07:54 33° ESE 20:10:56 10° NE
NOSS 3-2 (C) 3.6 20:03:35 10° SSW 20:09:14 53° SE 20:15:46 10° NE
Cosmos 1470 Rocket 3.6 20:04:59 10° SSW 20:09:23 85° WNW 20:13:47 10° N
Cosmos 2322 4.2 20:05:08 10° NNW 20:10:41 50° NE 20:15:30 14° ESE
BREEZE-M DEB (TANK) 3.2 20:10:11 10° WSW 20:11:59 18° SSW 20:12:31 17° S
Cosmos 2082 Rocket 2.7 20:08:14 10° SW 20:13:53 66° NW 20:19:33 10° NNE
Cosmos 1242 Rocket 4.1 20:11:46 10° N 20:14:44 23° ENE 20:16:53 14° ESE
Cosmos 2322 Rocket 2.5 20:12:25 10° NW 20:18:05 65° WSW 20:23:14 12° SSE
ERS-1 Rocket 3.0 20:16:14 14° SSE 20:20:36 73° ENE 20:25:38 10° NNW
Meteor 1-14 Rocket 4.4 20:15:28 10° S 20:21:19 67° E 20:27:17 10° NNE
Cosmos 2221 Rocket 4.1 20:20:45 10° N 20:25:06 46° ENE 20:28:09 18° SE
Cosmos 841 Rocket 3.6 20:20:15 10° NNW 20:25:30 74° WSW 20:29:56 15° SSE
Cosmos 1850 Rocket 4.0 20:21:03 10° SSW 20:26:18 69° ESE 20:31:33 10° NNE
Cosmos 2360 Rocket 2.2 20:21:37 10° NW 20:27:21 89° WSW 20:31:48 17° SSE
Meteor 1-25 Rocket 4.4 20:22:32 10° SSW 20:28:08 75° WNW 20:33:51 10° NNE
Cosmos 1500 3.5 20:25:35 17° SSE 20:28:09 44° E 20:31:45 10° NNE
SL-16 R/B 4.4 20:24:01 10° NNW 20:28:12 20° NNE 20:32:23 10° ENE
SPOT 1/Viking Rocket 3.7 20:23:32 11° S 20:28:37 74° WSW 20:33:53 10° NNW
Cosmos 1536 4.3 20:27:23 17° ESE 20:28:49 21° E 20:31:51 10° NE
Okean 3 3.7 20:24:54 10° N 20:29:10 58° ENE 20:32:07 19° SSE
USA 276 4.2 20:27:23 10° WSW 20:29:14 15° SSW 20:30:10 13° S
Terra 2.0 20:27:56 18° SE 20:31:26 60° ENE 20:36:09 10° N
Cosmos 2237 4.3 20:25:46 10° NW 20:31:32 79° WSW 20:35:58 17° SSE
IGS 5A 4.2 20:29:48 10° S 20:33:50 50° W 20:37:55 10° NNW
ATLAS 3B R/B 3.1 20:28:41 10° S 20:34:32 35° ESE 20:40:28 10° ENE
USA 234 3.3 20:29:00 15° ESE 20:34:34 71° SSW 20:41:08 10° WNW
Cosmos 1238 Rocket 3.2 20:32:01 10° SSW 20:34:52 45° WNW 20:37:57 10° N
Cosmos 44 4.4 20:32:14 10° WNW 20:36:43 37° WSW 20:40:36 14° S
Lacrosse 5 3.8 20:34:42 10° W 20:38:14 19° SW 20:41:44 10° S
Cosmos 1666 3.7 20:37:36 22° SE 20:39:00 28° E 20:42:17 10° NNE
COSMOS 2487 4.0 20:39:02 18° ESE 20:39:04 18° E 20:41:30 10° NE
Resurs 01 Rocket 3.6 20:37:26 10° SSW 20:41:05 25° W 20:44:47 10° NW
Iridium 4 Rocket 3.3 20:38:44 21° SSE 20:41:15 47° E 20:45:16 10° NNE
GP-B 4.4 20:38:07 10° N 20:42:18 41° W 20:46:28 10° SSW
Cosmos 1602 4.4 20:39:35 10° SSW 20:43:28 56° WNW 20:47:23 10° N
CARTOSAT-1 3.7 20:40:30 17° S 20:43:50 75° WSW 20:48:10 10° NNW
Cosmos 1933 Rocket 4.4 20:45:42 10° SSW 20:50:02 52° WNW 20:54:25 10° N
Cosmos 1814 Rocket 4.4 20:48:00 10° NNW 20:53:07 56° WSW 20:56:57 18° S
COSMOS 2428 3.0 20:48:11 10° NNW 20:53:53 62° NE 20:57:48 21° SE
Cosmos 1867 4.4 20:48:52 10° WSW 20:54:13 54° NNW 20:59:37 10° NE
Cosmos 2061 Rocket 4.2 20:50:45 18° SSE 20:55:12 54° E 21:01:14 10° NNE
Cosmos 405 Rocket 4.1 20:52:56 10° SW 20:56:26 38° WNW 21:00:01 10° N
Okean 1-7 4.2 20:54:00 10° NNW 20:58:00 38° W 21:01:51 11° SSW
Cosmos 2237 Rocket 3.3 20:52:59 10° NNW 20:58:14 37° NE 21:02:46 13° ESE
USA 238 DEB 3.9 20:52:28 10° WSW 20:59:12 78° NW 21:06:19 10° NE
USA 238 3.9 20:52:34 10° WSW 20:59:18 79° NW 21:06:24 10° NE
Cosmos 1802 Rocket 4.1 20:54:58 16° S 21:00:12 68° E 21:06:28 10° NNE
Cosmos 1743 4.4 21:00:17 18° E 21:00:55 19° E 21:03:42 10° NE
Cosmos 44 Rocket 3.3 20:56:12 10° NW 21:01:11 85° NE 21:04:15 24° SE
Cosmos 1869 Rocket 3.6 20:57:44 14° SSW 21:01:36 86° WNW 21:06:07 10° NNE
CENTAUR R/B 2.6 20:56:04 10° SW 21:02:20 85° SE 21:09:51 10° NE
NOSS 0 Rocket 4.4 20:57:09 10° NNW 21:03:17 54° NE 21:07:51 18° ESE
Cosmos 1816 Rocket 4.5 20:58:40 10° N 21:04:58 76° ENE 21:09:03 23° SSE
Cosmos 1741 Rocket 4.3 21:00:03 10° SW 21:05:18 70° WNW 21:10:38 10° NNE
Cosmos 1271 Rocket 3.5 21:04:22 10° N 21:07:58 39° ENE 21:09:24 28° ESE
FALCON 9 DEB 3.2 21:05:01 10° W 21:08:27 56° S 21:09:36 36° SE
Cosmos 2333 Rocket 2.2 21:06:05 10° NW 21:11:55 88° NE 21:15:19 26° SE
Cosmos 1674 Rocket 3.7 21:07:38 10° N 21:11:57 60° ENE 21:13:55 30° SE
ATLAS 5 CENTAUR R/B 2.4 21:10:24 10° WNW 21:12:55 44° SSW 21:14:58 27° SSE
Cosmos 2084 Rocket 3.4 21:12:00 10° SW 21:16:15 84° NW 21:20:38 10° NE
Cosmos 1066 Rocket 4.2 21:12:34 10° NNW 21:18:18 85° ENE 21:21:30 27° SSE
SPOT 5 3.6 21:17:39 18° SSW 21:20:32 42° W 21:24:49 10° NNW
Geosat 4.3 21:18:02 23° ESE 21:21:02 60° NE 21:26:01 10° NNW
NOSS 5 (C) 4.3 21:19:13 10° SW 21:23:02 61° SE 21:26:08 10° ENE
Cosmos 1486 Rocket 4.5 21:22:07 29° SSE 21:24:04 41° ESE 21:28:57 10° NE
Meteor 1-5 Rocket 4.4 21:18:36 12° SSW 21:24:08 81° WNW 21:30:02 10° NNE
ERBS 2.3 21:26:37 10° WNW 21:29:52 56° SSW 21:30:13 53° S
Cosmos 1733 Rocket 3.0 21:29:41 33° S 21:31:34 69° E 21:36:00 10° NNE
Cosmos 1356 3.3 21:30:29 38° SSW 21:31:42 83° WNW 21:35:10 10° NNE
Cosmos 489 Rocket 4.5 21:26:52 10° NNW 21:33:15 87° WSW 21:36:44 29° SSE
Tsikada Rocket 4.1 21:28:35 10° NNW 21:34:58 80° W 21:38:46 26° S
Meteor 1-11 Rocket 3.7 21:31:46 20° SSW 21:35:49 89° ESE 21:41:42 10° NNE
Cosmos 968 Rocket 3.8 21:37:25 33° SSE 21:39:10 46° ESE 21:44:04 10° NE
Lacrosse 4 Rocket 1.4 21:37:37 34° S 21:39:14 59° SE 21:43:21 10° NE
USA 267 3.2 21:33:09 10° ENE 21:39:38 60° SSE 21:46:05 10° SW
Cosmos 2227 Rocket 4.2 21:40:11 11° E 21:40:45 11° E 21:42:21 10° ENE
ALOS 2 3.5 21:39:37 27° ESE 21:41:21 39° ENE 21:45:28 10° N
Cosmos 2219 Rocket 2.3 21:35:58 10° NW 21:41:38 69° WSW 21:44:23 31° SSE
SL-4 R/B 2.5 21:39:53 10° W 21:42:59 34° SSW 21:42:59 34° SSW
SL-16 R/B 4.4 21:40:39 10° WNW 21:43:54 16° W 21:47:11 10° SW
NOSS 3-2 (A) 4.3 21:43:34 10° W 21:49:37 55° NNW 21:56:42 10° NE
Cosmos 1242 Rocket 3.4 21:46:19 10° NNW 21:49:46 41° W 21:50:53 32° SW
EO 1 Del DPAF 4.2 21:49:42 10° NNE 21:53:06 31° E 21:53:12 31° E
Cosmos 2322 4.4 21:49:31 10° NW 21:54:51 43° WSW 21:57:25 27° SSW
Cosmos 1607 4.3 21:52:06 10° NW 21:58:32 66° NE 22:03:21 19° ESE
Cosmos 1782 Rocket 4.4 21:58:07 31° ESE 21:58:50 33° E 22:02:45 10° NNE
Cosmos 1725 Rocket 4.2 21:55:17 20° SSW 21:59:47 74° WNW 22:06:09 10° N
NOSS 3-2 (C) 4.1 21:54:06 10° WSW 22:00:09 61° NNW 22:07:14 10° NE
Spot 4 3.8 21:58:19 39° SSE 22:00:10 86° WSW 22:05:03 10° NNW
Cosmos 1842 3.4 21:57:08 10° N 22:01:03 60° ENE 22:01:52 47° SE
Cosmos 2322 Rocket 4.4 21:58:09 10° WNW 22:01:05 14° W 22:04:01 10° SW
Cosmos 1833 4.2 21:58:11 14° SW 22:03:02 85° WNW 22:08:46 10° NE
Cosmos 1378 Rocket 3.9 21:58:55 10° NNW 22:03:19 60° W 22:04:52 37° SSW
Cosmos 1536 3.5 22:03:05 27° SW 22:04:57 50° WNW 22:08:51 10° N
Cosmos 1908 Rocket 3.6 22:04:49 46° SSE 22:05:52 62° E 22:10:10 10° NNE
Cosmos 2344 4.2 21:58:07 10° NW 22:06:54 87° NE 22:17:17 15° SE
Terra 3.5 22:06:49 15° SW 22:09:34 25° W 22:13:29 10° NW
Cosmos 2360 Rocket 4.0 22:06:32 10° NW 22:10:38 21° W 22:13:33 14° SW
COSMOS 2487 3.2 22:12:29 31° WSW 22:13:47 49° WNW 22:17:10 10° NNE
SL-16 R/B 3.0 22:08:17 10° NNW 22:13:47 46° NE 22:17:41 19° ESE
Cosmos 1666 4.2 22:12:27 19° WSW 22:14:32 32° WNW 22:17:59 10° N
USA 234 4.1 22:16:21 27° SSW 22:18:20 32° SW 22:24:06 10° WNW
MOS 1-B Rocket 3.8 22:14:28 10° NNE 22:20:09 86° WNW 22:23:10 29° SSW
Cosmos 1378 4.1 22:17:01 10° NNW 22:20:29 36° W 22:21:16 32° WSW
ATLAS 3B R/B 2.7 22:18:08 10° SW 22:24:46 80° NW 22:31:31 10° NE
Cosmos 1354 Rocket 4.1 22:23:57 41° S 22:25:42 63° ESE 22:31:00 10° NNE
Cosmos 1975 Rocket 3.0 22:21:38 10° NNW 22:26:10 88° E 22:27:17 51° SSE
SL-24 DEB 4.5 22:23:45 10° N 22:28:29 58° E 22:29:43 44° SE
Meteor 1-21 4.2 22:24:53 10° NNW 22:30:43 86° WSW 22:33:00 39° S
Cosmos 1544 2.9 22:30:40 73° S 22:30:59 86° E 22:34:42 10° NNE
Cosmos 2297 Rocket 3.2 22:32:12 28° ESE 22:33:07 30° ESE 22:37:58 10° NE
Thor Agena Rocket 3.4 22:28:00 10° NNE 22:33:08 84° ESE 22:35:03 40° SSW
Okean 2 3.6 22:29:37 10° NNW 22:33:42 60° W 22:34:30 49° SW
Nimbus 7 Rocket 4.5 22:29:07 10° NNE 22:34:57 61° ESE 22:37:08 38° SSE
Cosmos 1980 3.7 22:29:17 10° NW 22:34:57 70° WSW 22:36:58 40° S
Cosmos 1743 3.2 22:35:21 41° SW 22:36:20 55° WNW 22:40:12 10° N
Cosmos 1975 2.7 22:36:14 62° SSE 22:36:50 79° E 22:40:54 10° NNE
Meteor 2-9 Rocket 4.3 22:35:06 40° SSE 22:37:09 68° E 22:42:56 10° NNE
COSMOS 2428 3.7 22:32:49 10° NW 22:37:56 34° WSW 22:39:48 28° SW
Cosmos 2233 Rocket 4.4 22:34:08 24° SSW 22:38:00 62° WNW 22:44:18 10° N
Cosmos 1025 Rocket 3.4 22:37:20 10° N 22:41:33 54° ENE 22:42:31 43° ESE
Timation 2 Rocket 4.1 22:39:51 38° SSE 22:41:43 51° ESE 22:47:30 10° NE
Cosmos 2237 Rocket 2.2 22:37:05 10° NW 22:42:42 66° WSW 22:44:35 41° S
Cosmos 1271 Rocket 4.3 22:40:40 10° NW 22:43:49 25° W 22:44:31 23° WSW
Cosmos 2219 3.7 22:46:31 36° SE 22:47:42 41° ESE 22:52:56 10° NE
SJ 16-02 3.5 22:47:38 14° E 22:47:57 14° E 22:50:14 10° ENE
Cosmos 1464 Rocket 3.9 22:46:12 38° S 22:48:44 76° E 22:54:55 10° NNE
NOSS 0 Rocket 4.4 22:43:50 10° NW 22:49:45 46° WSW 22:51:50 34° SSW
Nadezhda 4 Rocket 3.9 22:45:59 10° N 22:52:19 86° E 22:54:56 38° SSE
CENTAUR R/B 3.7 22:47:10 10° W 22:53:41 51° NNW 23:01:22 10° ENE
Okean 2 Rocket 3.6 22:53:44 42° SE 22:54:31 47° E 22:58:53 10° NNE
Cosmos 2333 Rocket 3.7 22:51:10 10° NW 22:55:31 23° WSW 22:57:19 19° SW
Cosmos 1674 3.9 22:52:54 10° N 22:56:19 32° ENE 22:57:04 30° E
Cosmos 1437 3.1 22:53:50 10° NNW 22:56:20 58° N 22:56:20 58° N
Cosmos 1503 Rocket 4.2 22:58:15 31° SW 23:00:52 72° WNW 23:06:15 10° NNE
Cosmos 923 Rocket 4.2 23:00:07 10° NNW 23:05:28 71° ENE 23:07:42 35° SE
DNEPR-1 R/B 4.4 23:08:08 10° NW 23:13:50 45° WSW 23:14:43 41° SSW
Cosmos 1092 Rocket 4.0 23:07:49 10° N 23:14:07 81° E 23:16:44 37° SSE
Sich 1 Rocket 3.5 23:15:13 55° SSW 23:16:08 79° WNW 23:20:34 10° N
Cosmos 1626 3.9 23:14:15 10° N 23:17:23 25° ENE 23:18:35 21° E
ALOS 2 3.6 23:17:00 31° WSW 23:17:45 33° W 23:21:46 10° NNW
Lacrosse 4 Rocket 3.1 23:14:22 10° W 23:18:11 32° NW 23:21:56 10° NNE
Helios 1A 3.0 23:18:09 58° SSW 23:18:46 68° WSW 23:23:01 10° NNW
Cosmos 1707 3.0 23:17:39 10° NNW 23:21:29 52° W 23:21:46 51° WSW
Cosmos 2034 Rocket 4.0 23:19:27 38° S 23:22:06 89° W 23:28:30 10° NNE
USA 267 3.3 23:16:21 10° ENE 23:22:55 85° NNW 23:29:30 10° W
YAOGAN 11 4.2 23:22:19 53° S 23:23:19 74° WSW 23:27:54 10° NNW
Cosmos 2227 Rocket 2.4 23:22:00 41° SSE 23:23:33 54° ESE 23:29:04 10° NE
Cosmos 1461 4.3 23:24:34 28° ESE 23:24:34 28° ESE 23:28:17 10° ENE
Cosmos 2219 Rocket 4.1 23:21:25 10° WNW 23:24:37 15° W 23:26:05 14° WSW
Cosmos 2151 Rocket 3.6 23:26:48 54° SSE 23:27:36 68° E 23:32:00 10° NNE
Cosmos 1536 Rocket 3.5 23:24:35 10° NNW 23:28:56 73° W 23:29:39 58° SSW
Meteor 1-12 Rocket 4.3 23:28:42 40° S 23:31:02 85° ESE 23:37:07 10° NNE
TIMED 4.4 23:27:13 10° NNW 23:31:38 85° ENE 23:32:39 53° SSE
Resurs 1-4 Rocket 4.2 23:29:28 10° NE 23:32:51 17° E 23:35:32 12° ESE
Meteor 2-5 Rocket 4.0 23:28:41 10° N 23:34:17 63° ENE 23:36:52 31° SE
Landsat 4 4.0 23:31:53 10° NNE 23:35:36 53° E 23:35:51 52° ESE
Iridium 51 4.1 23:32:20 10° N 23:36:25 75° E 23:36:50 66° SE
Cosmos 158 Rocket 4.0 23:39:19 10° NNW 23:44:43 79° WSW 23:46:39 41° SSE
Cosmos 1607 4.4 23:39:36 10° NW 23:45:40 45° WSW 23:47:26 37° SSW
Cosmos 1805 3.8 23:45:52 41° ESE 23:46:22 44° E 23:50:06 10° NNE
Cosmos 2082 4.0 23:48:47 38° SSE 23:50:28 51° ESE 23:55:54 10° NE
Helios 1B rocket 2.7 23:49:33 10° NNE 23:53:36 53° ESE 23:54:18 46° SE
PSLV R/B 3.7 23:49:01 10° NNE 23:53:46 80° ESE 23:55:06 48° S
